Voltar ao catálogo

COSMOS 1275 DEB

AtivoPO
NORAD 13797·DEBRIS·🇷🇺 Russia

Lançado Jun 4, 1981 de Plesetsk Cosmodrome

Loading…

Próximas Passagens (próximas 24 horas)

TLE

AtualizadoSource: Space-Track

Época: Sep 14, 2026, 10:35 UTC

1 13797U 81053GR  26257.44105403  .00000344  00000-0  28148-3 0  9994
2 13797  82.8338 239.4223 0050656   4.6341 149.8901 13.86389942215773

Acompanhe COSMOS 1275 DEB em tempo real com AllMySat

Download on the App Store